QPF
0.00 0.00 0.00 0.00 0.00 0.00 0.00 0.00 0.00 0.00 0.00 0.00 0.00 0.00 0.00 0.00 0.00 0.00 0.00 0.00 0.00 0.00 0.00 0.00 0.00 0.00 0.00 0.00 0.00 0.00 0.00 0.00 0.00 0.00 0.00 0.00 0.00 0.00 0.00 0.00 0.00 0.00 0.00
0.00 0.00 0.00 0.00 0.00 0.00 0.00 0.00 0.00 0.00 0.00 0.00 0.00 0.00 0.00 0.00 0.00 0.00 0.00 0.00 0.00 0.00 0.00 0.00 0.00 0.00 0.00 0.00 0.00 0.00 0.00 0.00 0.00 0.00 0.00 0.00 0.00 0.00 0.00 0.00 0.00 0.00 0.00
0.00 0.00 0.00 0.00 0.00 0.00 0.00 0.00 0.00 0.00 0.00 0.00 0.00 0.00 0.00 0.00 0.00 0.00 0.00 0.00 0.00 0.00 0.00 0.00 0.00 0.00 0.00 0.00 0.00 0.00 0.00 0.00 0.00 0.00 0.00 0.00 0.00 0.00 0.00 0.00 0.00 0.00 0.00
0.00 0.00 0.00 0.00 0.00 0.00 0.00 0.00 0.00 0.00 0.00 0.00 0.00 0.00 0.00 0.00 0.00 0.00 0.00 0.00 0.00 0.00 0.00 0.00 0.00 0.00 0.00 0.00 0.00 0.00 0.00 0.00 0.00 0.00 0.00 0.00 0.00 0.00 0.00 0.00 0.00 0.00 0.00
0.00 0.00 0.00 0.00 0.00 0.00 0.00 0.00 0.00 0.00 0.00 0.00 0.00 0.00 0.00 0.00 0.00 0.00 0.00 0.00 0.00 0.00 0.00 0.00 0.00 0.00 0.00 0.00 0.00 0.00 0.00 0.00 0.00 0.00 0.00 0.00 0.00 0.00 0.00 0.00 0.00 0.00 0.00
0.00 0.00 0.00 0.00 0.00 0.00 0.00 0.00 0.00 0.00 0.00 0.00 0.01 0.00 0.00 0.00 0.00 0.00 0.00 0.00 0.00 0.00 0.00 0.00 0.00 0.00 0.00 0.00 0.00 0.00 0.00 0.00 0.00 0.00 0.00 0.00 0.00 0.00 0.00 0.00 0.00 0.00 0.00
0.00 0.00 0.00 0.00 0.00 0.00 0.00 0.00 0.00 0.00 0.00 0.00 0.01 0.01 0.01 0.00 0.00 0.00 0.00 0.00 0.00 0.00 0.00 0.00 0.00 0.00 0.00 0.00 0.00 0.00 0.00 0.00 0.00 0.00 0.00 0.00 0.00 0.00 0.00 0.00 0.00 0.00 0.00
0.00 0.00 0.00 0.00 0.00 0.00 0.00 0.00 0.00 0.00 0.00 0.00 0.00 0.00 0.01 0.01 0.00 0.00 0.00 0.00 0.00 0.00 0.00 0.00 0.00 0.00 0.00 0.00 0.00 0.00 0.00 0.00 0.00 0.00 0.00 0.00 0.00 0.00 0.00 0.00 0.00 0.00 0.00
0.00 0.00 0.00 0.00 0.00 0.00 0.00 0.00 0.00 0.00 0.00 0.00 0.00 0.00 0.00 0.01 0.01 0.00 0.00 0.00 0.00 0.00 0.00 0.00 0.00 0.00 0.00 0.00 0.00 0.00 0.00 0.00 0.00 0.00 0.00 0.00 0.00 0.00 0.00 0.00 0.00 0.00 0.00
0.00 0.00 0.00 0.00 0.00 0.00 0.00 0.00 0.00 0.00 0.00 0.00 0.00 0.00 0.00 0.00 0.01 0.01 0.01 0.01 0.01 0.00 0.00 0.00 0.00 0.00 0.00 0.00 0.00 0.00 0.00 0.00 0.00 0.00 0.00 0.00 0.00 0.00 0.00 0.00 0.00 0.00 0.00
0.00 0.00 0.00 0.00 0.00 0.00 0.00 0.00 0.00 0.00 0.00 0.00 0.00 0.00 0.00 0.00 0.00 0.01 0.02 0.02 0.03 0.03 0.03 0.03 0.02 0.01 0.00 0.00 0.00 0.00 0.00 0.00 0.00 0.00 0.00 0.00 0.00 0.00 0.00 0.00 0.00 0.00 0.00
0.00 0.00 0.00 0.00 0.00 0.00 0.00 0.00 0.00 0.00 0.00 0.00 0.00 0.00 0.00 0.00 0.00 0.00 0.01 0.02 0.03 0.04 0.05 0.05 0.05 0.05 0.04 0.02 0.01 0.00 0.00 0.00 0.00 0.00 0.00 0.00 0.00 0.00 0.00 0.00 0.00 0.00 0.00
0.00 0.00 0.00 0.00 0.00 0.00 0.00 0.00 0.00 0.00 0.00 0.00 0.00 0.00 0.00 0.00 0.00 0.00 0.00 0.00 0.00 0.01 0.02 0.03 0.04 0.05 0.06 0.06 0.05 0.04 0.02 0.00 0.00 0.00 0.00 0.00 0.00 0.00 0.00 0.00 0.00 0.00 0.00
0.00 0.00 0.00 0.00 0.00 0.00 0.00 0.00 0.00 0.00 0.00 0.00 0.00 0.00 0.00 0.00 0.00 0.00 0.00 0.00 0.00 0.01 0.01 0.02 0.03 0.04 0.05 0.06 0.06 0.06 0.06 0.05 0.03 0.01 0.00 0.00 0.00 0.00 0.00 0.00 0.00 0.00 0.00
0.00 0.00 0.00 0.00 0.00 0.00 0.00 0.00 0.00 0.00 0.00 0.00 0.00 0.00 0.00 0.00 0.00 0.00 0.00 0.00 0.00 0.00 0.01 0.01 0.02 0.04 0.05 0.06 0.07 0.06 0.05 0.08 0.08 0.08 0.07 0.05 0.03 0.01 0.00 0.00 0.00 0.00 0.00
0.00 0.00 0.00 0.00 0.00 0.00 0.00 0.00 0.00 0.00 0.00 0.00 0.00 0.00 0.00 0.00 0.00 0.00 0.00 0.00 0.00 0.00 0.00 0.00 0.01 0.03 0.04 0.06 0.07 0.08 0.04 0.06 0.08 0.09 0.11 0.11 0.11 0.09 0.06 0.04 0.01 0.00 0.00
0.00 0.00 0.00 0.00 0.00 0.00 0.00 0.00 0.00 0.00 0.00 0.00 0.00 0.00 0.00 0.00 0.00 0.00 0.00 0.00 0.00 0.00 0.00 0.00 0.00 0.00 0.01 0.04 0.06 0.07 0.06 0.05 0.09 0.09 0.09 0.10 0.11 0.12 0.12 0.12 0.12 0.10 0.06
0.00 0.00 0.00 0.00 0.00 0.00 0.00 0.00 0.00 0.00 0.00 0.00 0.00 0.00 0.00 0.00 0.00 0.00 0.00 0.00 0.00 0.00 0.00 0.00 0.00 0.00 0.00 0.01 0.02 0.03 0.04 0.03 0.06 0.08 0.08 0.08 0.08 0.10 0.12 0.12 0.12 0.11 0.10
0.00 0.00 0.00 0.00 0.00 0.00 0.00 0.00 0.00 0.00 0.00 0.00 0.00 0.00 0.00 0.00 0.00 0.00 0.00 0.00 0.00 0.00 0.00 0.00 0.00 0.00 0.00 0.00 0.00 0.01 0.01 0.01 0.02 0.04 0.05 0.06 0.06 0.05 0.08 0.13 0.10 0.08 0.07
0.00 0.00 0.00 0.00 0.00 0.00 0.00 0.00 0.00 0.00 0.00 0.00 0.00 0.00 0.00 0.00 0.00 0.00 0.00 0.00 0.00 0.00 0.00 0.00 0.00 0.00 0.00 0.00 0.00 0.00 0.00 0.00 0.00 0.00 0.01 0.03 0.06 0.05 0.07 0.11 0.09 0.07 0.04
0.00 0.00 0.00 0.00 0.00 0.00 0.00 0.00 0.00 0.00 0.00 0.00 0.00 0.00 0.00 0.00 0.00 0.00 0.00 0.00 0.00 0.00 0.00 0.00 0.00 0.00 0.00 0.00 0.00 0.00 0.00 0.00 0.00 0.00 0.00 0.00 0.01 0.04 0.05 0.07 0.09 0.07 0.03
0.00 0.00 0.00 0.00 0.00 0.00 0.00 0.00 0.00 0.00 0.00 0.00 0.00 0.00 0.00 0.00 0.00 0.00 0.00 0.00 0.00 0.00 0.00 0.00 0.00 0.00 0.00 0.00 0.00 0.00 0.00 0.00 0.00 0.00 0.00 0.00 0.00 0.00 0.01 0.03 0.04 0.04 0.07
0.00 0.00 0.00 0.00 0.00 0.00 0.00 0.00 0.00 0.00 0.00 0.00 0.00 0.00 0.00 0.00 0.00 0.00 0.00 0.00 0.00 0.00 0.00 0.00 0.00 0.00 0.00 0.00 0.00 0.00 0.00 0.00 0.00 0.00 0.00 0.00 0.00 0.01 0.01 0.01 0.01 0.01 0.05
0.00 0.00 0.00 0.00 0.00 0.00 0.00 0.00 0.00 0.00 0.00 0.00 0.00 0.00 0.00 0.00 0.00 0.00 0.00 0.00 0.00 0.00 0.00 0.00 0.00 0.00 0.00 0.00 0.00 0.00 0.00 0.00 0.00 0.00 0.00 0.00 0.00 0.00 0.00 0.00 0.00 0.00 0.01
0.00 0.00 0.00 0.00 0.00 0.00 0.00 0.00 0.00 0.00 0.00 0.00 0.00 0.00 0.00 0.00 0.00 0.00 0.00 0.00 0.00 0.00 0.01 0.02 0.02 0.02 0.01 0.00 0.00 0.01 0.03 0.02 0.02 0.03 0.03 0.02 0.00 0.00 0.00 0.00 0.00 0.00 0.00
0.00 0.00 0.00 0.00 0.00 0.00 0.00 0.00 0.00 0.00 0.00 0.00 0.00 0.00 0.00 0.00 0.00 0.00 0.00 0.00 0.00 0.00 0.00 0.00 0.01 0.02 0.01 0.00 0.00 0.01 0.01 0.01 0.01 0.04 0.04 0.03 0.03 0.02 0.01 0.00 0.00 0.00 0.00
MSLP
1028.25 1028.32 1028.21 1028.04 1027.72 1027.11 1026.44 1025.76 1024.89 1024.12 1022.92 1021.72 1020.41 1018.39 1018.05 1018.03 1018.10 1018.22 1018.35 1018.39 1018.48 1018.67 1018.84 1018.78 1018.90 1019.10 1019.02 1019.43 1019.64 1019.94 1020.25 1020.86 1021.47 1021.95 1022.16 1022.29 1022.34 1022.32 1022.29 1022.13 1021.98 1021.95 1022.01
1028.49 1028.72 1028.73 1028.73 1028.61 1028.43 1027.86 1027.11 1026.46 1025.67 1024.77 1023.70 1022.32 1020.78 1019.24 1018.45 1018.34 1018.39 1018.69 1018.75 1018.75 1018.90 1019.00 1018.94 1018.98 1019.04 1019.17 1019.21 1019.89 1020.36 1020.61 1021.10 1021.50 1021.37 1021.50 1021.75 1021.89 1021.95 1022.01 1022.03 1021.83 1021.76 1021.99
1029.40 1029.56 1029.50 1029.50 1029.51 1029.32 1029.04 1028.58 1027.95 1027.20 1026.39 1025.45 1023.80 1021.94 1020.29 1019.54 1019.26 1019.09 1019.07 1019.07 1019.22 1019.24 1019.33 1019.26 1019.22 1019.14 1019.21 1019.28 1019.84 1020.37 1020.67 1020.98 1021.36 1021.36 1021.26 1021.39 1021.18 1020.45 1021.29 1021.59 1021.52 1021.69 1021.94
1030.06 1030.39 1030.42 1030.29 1030.33 1030.32 1030.16 1029.70 1029.05 1028.35 1027.65 1026.90 1025.81 1024.96 1024.04 1022.96 1022.09 1020.24 1019.63 1019.25 1019.49 1019.53 1019.59 1019.60 1019.49 1019.41 1019.33 1019.44 1019.46 1020.02 1020.44 1020.62 1021.00 1021.57 1021.34 1021.09 1021.27 1020.97 1020.81 1021.01 1021.23 1021.40 1021.66
1030.62 1030.82 1030.92 1030.96 1031.03 1030.94 1030.76 1030.47 1030.05 1029.46 1028.88 1028.22 1027.58 1026.76 1025.92 1025.19 1024.24 1022.93 1021.65 1020.28 1019.78 1020.06 1020.05 1020.04 1019.82 1019.72 1019.58 1019.53 1019.51 1019.55 1020.06 1020.35 1020.50 1020.74 1020.87 1020.98 1021.11 1021.32 1021.24 1020.42 1020.98 1021.32 1021.45
1031.28 1031.57 1031.65 1031.56 1031.52 1031.38 1031.10 1030.82 1030.46 1030.19 1029.81 1029.35 1028.81 1028.22 1027.62 1026.90 1026.04 1025.38 1024.56 1023.47 1022.18 1021.36 1020.63 1020.59 1020.44 1020.11 1019.84 1019.69 1019.56 1019.53 1019.65 1020.02 1020.09 1020.28 1020.40 1020.29 1020.58 1020.71 1020.76 1020.50 1020.08 1020.67 1020.88
1032.02 1032.21 1032.25 1032.18 1032.13 1031.98 1031.76 1031.39 1030.95 1030.60 1030.50 1030.27 1029.89 1029.52 1029.05 1028.43 1027.88 1027.41 1026.66 1025.80 1025.00 1024.25 1023.52 1022.58 1021.19 1020.50 1020.16 1019.93 1019.71 1019.59 1019.55 1019.77 1019.86 1019.87 1019.97 1019.89 1020.02 1020.10 1019.91 1019.92 1019.84 1020.18 1020.49
1032.90 1033.09 1033.19 1033.15 1033.06 1032.92 1032.70 1032.42 1031.95 1031.55 1031.20 1030.87 1030.64 1030.55 1030.12 1029.64 1029.19 1028.72 1028.08 1027.40 1026.81 1026.18 1025.46 1024.55 1023.14 1021.66 1020.51 1020.14 1019.89 1019.72 1019.59 1019.47 1019.65 1019.66 1019.70 1019.68 1019.65 1019.76 1019.78 1019.90 1019.88 1020.17 1020.15
1033.77 1033.95 1034.04 1034.08 1034.00 1033.85 1033.64 1033.34 1033.04 1032.65 1032.22 1031.77 1031.30 1030.92 1030.72 1030.42 1030.10 1029.68 1029.11 1028.48 1027.84 1026.98 1026.31 1025.52 1024.53 1023.37 1022.21 1020.61 1019.97 1019.78 1019.51 1019.36 1019.27 1019.32 1019.40 1019.46 1019.46 1019.40 1019.54 1019.70 1019.72 1019.71 1019.88
1034.56 1034.73 1034.77 1034.85 1034.86 1034.76 1034.61 1034.35 1034.02 1033.61 1033.24 1032.79 1032.20 1031.69 1031.14 1030.69 1030.43 1030.19 1029.63 1029.07 1028.43 1027.67 1026.89 1026.10 1025.29 1024.42 1023.46 1022.35 1021.31 1019.99 1019.53 1019.11 1018.85 1018.84 1018.90 1019.06 1019.18 1019.28 1019.21 1019.36 1019.48 1019.48 1019.55
1035.49 1035.66 1035.68 1035.75 1035.83 1035.74 1035.53 1035.28 1034.91 1034.50 1034.04 1033.56 1033.02 1032.48 1031.92 1031.43 1030.90 1030.40 1029.92 1029.44 1028.90 1028.20 1027.49 1026.84 1026.02 1025.18 1024.39 1023.58 1022.49 1021.40 1020.15 1019.24 1018.81 1018.50 1018.41 1018.37 1018.65 1018.82 1019.04 1019.13 1019.12 1019.23 1019.37
1036.53 1036.73 1036.76 1036.71 1036.71 1036.65 1036.50 1036.29 1035.97 1035.53 1035.09 1034.52 1033.90 1033.19 1032.64 1032.14 1031.68 1031.11 1030.55 1029.91 1029.21 1028.50 1028.00 1027.35 1026.65 1025.87 1025.12 1024.38 1023.40 1022.52 1021.69 1020.82 1019.51 1018.74 1018.40 1018.10 1018.18 1018.10 1018.34 1018.68 1018.81 1018.91 1018.88
1037.60 1037.79 1037.76 1037.75 1037.83 1037.74 1037.54 1037.25 1036.89 1036.42 1035.87 1035.23 1034.62 1033.93 1033.35 1032.81 1032.32 1031.77 1031.14 1030.48 1029.85 1029.19 1028.43 1027.73 1027.06 1026.43 1025.74 1024.94 1024.04 1023.16 1022.40 1021.58 1020.94 1020.13 1019.10 1018.42 1018.20 1018.00 1017.89 1017.93 1017.91 1018.11 1018.30
1038.41 1038.58 1038.54 1038.50 1038.50 1038.38 1038.17 1037.84 1037.43 1037.00 1036.41 1035.78 1035.14 1034.43 1033.72 1033.26 1032.81 1032.13 1031.54 1030.88 1030.21 1029.60 1028.96 1028.28 1027.50 1026.79 1026.12 1025.38 1024.55 1023.60 1022.84 1022.19 1021.51 1020.88 1020.33 1019.74 1019.05 1018.34 1018.07 1018.02 1017.80 1017.79 1017.91
1039.26 1039.44 1039.38 1039.21 1038.98 1038.75 1038.46 1038.10 1037.63 1037.16 1036.60 1035.94 1035.35 1034.69 1033.99 1033.55 1033.11 1032.25 1031.69 1030.96 1030.30 1029.70 1029.03 1028.44 1027.86 1027.09 1026.24 1025.57 1024.66 1023.95 1023.22 1022.62 1021.99 1021.29 1020.78 1020.35 1019.92 1019.48 1019.08 1018.90 1018.17 1018.02 1017.91
1039.99 1040.01 1039.85 1039.61 1039.35 1039.09 1038.65 1038.27 1037.76 1037.24 1036.66 1036.02 1035.40 1034.74 1034.05 1033.58 1033.04 1032.32 1031.67 1030.97 1030.28 1029.63 1028.89 1028.32 1027.75 1027.15 1026.45 1025.56 1024.62 1024.02 1023.56 1023.03 1022.47 1021.90 1021.17 1020.65 1020.11 1019.65 1019.31 1019.12 1019.01 1018.83 1018.50
1040.46 1040.36 1040.23 1039.96 1039.70 1039.33 1038.95 1038.48 1037.91 1037.35 1036.71 1036.04 1035.33 1034.62 1033.95 1033.41 1032.78 1032.13 1031.49 1030.86 1030.18 1029.43 1028.72 1028.10 1027.54 1026.93 1026.33 1025.64 1024.66 1024.07 1023.64 1023.27 1022.71 1022.19 1021.49 1020.98 1020.42 1019.81 1019.29 1018.94 1018.93 1018.89 1018.82
1040.73 1040.58 1040.37 1040.10 1039.78 1039.37 1039.09 1038.62 1037.99 1037.31 1036.63 1035.98 1035.25 1034.58 1033.99 1033.32 1032.64 1031.99 1031.31 1030.68 1030.02 1029.27 1028.57 1027.92 1027.27 1026.61 1026.07 1025.36 1024.72 1023.98 1023.67 1023.24 1022.60 1022.05 1021.49 1021.06 1020.52 1019.97 1019.36 1018.96 1018.59 1018.54 1018.59
1040.83 1040.59 1040.26 1039.82 1039.31 1039.01 1038.64 1038.14 1037.52 1036.94 1036.32 1035.64 1035.00 1034.47 1033.83 1033.13 1032.50 1031.84 1031.23 1030.57 1029.76 1029.06 1028.40 1027.64 1026.99 1026.43 1025.89 1025.23 1024.51 1023.93 1023.42 1022.73 1022.15 1021.72 1021.21 1020.83 1020.22 1019.69 1019.18 1018.81 1018.44 1018.23 1018.06
1040.35 1039.98 1039.59 1039.16 1038.93 1038.41 1037.91 1037.38 1036.87 1036.28 1035.66 1035.10 1034.68 1034.19 1033.63 1032.99 1032.32 1031.71 1030.97 1030.30 1029.68 1028.84 1028.15 1027.43 1026.86 1026.31 1025.64 1025.20 1024.39 1023.67 1023.05 1022.28 1021.67 1021.10 1020.52 1020.23 1019.78 1019.18 1018.74 1018.40 1018.23 1017.89 1017.78
1039.73 1039.42 1039.06 1038.65 1038.17 1037.68 1037.22 1036.71 1036.19 1035.62 1035.08 1034.73 1034.34 1033.80 1033.32 1032.76 1032.21 1031.55 1030.95 1030.29 1029.56 1028.71 1028.08 1027.40 1026.81 1026.12 1025.50 1024.71 1023.96 1023.35 1022.75 1022.09 1021.37 1020.66 1020.04 1019.50 1019.07 1018.81 1018.45 1018.16 1017.86 1017.54 1017.48
1039.11 1038.82 1038.35 1037.91 1037.48 1037.13 1036.63 1036.13 1035.66 1035.19 1034.89 1034.53 1034.06 1033.58 1033.10 1032.62 1032.00 1031.43 1030.77 1030.03 1029.30 1028.69 1027.99 1027.19 1026.46 1025.82 1025.08 1024.37 1023.58 1022.87 1022.29 1021.73 1021.10 1020.46 1019.88 1019.31 1018.73 1018.11 1017.83 1017.77 1017.66 1017.19 1016.88
1038.68 1038.33 1037.95 1037.46 1037.05 1036.55 1036.17 1035.62 1035.24 1035.01 1034.63 1034.22 1033.73 1033.29 1032.80 1032.32 1031.79 1031.07 1030.31 1029.80 1029.22 1028.49 1027.81 1027.05 1026.30 1025.55 1024.85 1024.00 1023.27 1022.42 1021.77 1021.27 1020.71 1020.23 1019.64 1018.95 1018.30 1017.71 1017.28 1017.28 1016.83 1016.63 1016.38
1038.19 1037.85 1037.45 1036.94 1036.26 1035.97 1035.64 1035.29 1034.88 1034.59 1034.21 1033.71 1033.27 1032.85 1032.37 1031.79 1031.19 1030.84 1030.17 1029.50 1028.98 1028.41 1027.78 1027.01 1026.18 1025.38 1024.60 1023.81 1023.07 1022.27 1021.58 1020.98 1020.26 1019.57 1019.04 1018.48 1017.93 1017.52 1017.08 1016.66 1016.53 1016.52 1016.05
1037.83 1037.48 1036.87 1036.20 1035.75 1035.44 1035.04 1034.73 1034.40 1034.07 1033.66 1033.23 1032.81 1032.40 1031.90 1031.37 1030.86 1030.38 1029.77 1029.03 1028.53 1027.92 1026.86 1026.15 1025.54 1024.75 1023.93 1023.35 1022.50 1021.68 1021.07 1020.48 1019.79 1018.91 1018.26 1017.68 1017.24 1016.88 1016.53 1016.32 1016.15 1015.93 1015.85
1037.30 1036.64 1036.37 1035.87 1035.30 1034.90 1034.46 1034.10 1033.81 1033.49 1033.11 1032.69 1032.25 1031.83 1031.35 1030.93 1030.44 1029.72 1028.95 1028.54 1027.70 1026.94 1026.12 1025.27 1024.61 1023.96 1023.29 1022.49 1021.87 1021.19 1020.51 1019.83 1019.13 1018.44 1017.88 1017.34 1016.89 1016.41 1016.02 1015.71 1015.49 1015.33 1015.33
Thickness
5534 5534 5537 5539 5542 5548 5554 5560 5567 5573 5582 5590 5600 5618 5620 5620 5619 5619 5619 5619 5620 5619 5619 5621 5621 5620 5623 5621 5621 5621 5620 5617 5612 5610 5609 5609 5609 5611 5611 5612 5613 5614 5614
5525 5525 5526 5527 5528 5531 5536 5542 5548 5555 5562 5569 5580 5592 5603 5609 5609 5609 5608 5609 5610 5610 5610 5612 5613 5613 5614 5616 5611 5609 5609 5607 5604 5608 5609 5610 5610 5607 5606 5607 5608 5609 5608
5508 5508 5511 5513 5513 5515 5519 5523 5528 5535 5542 5550 5562 5575 5585 5591 5594 5596 5597 5598 5597 5599 5599 5601 5602 5603 5604 5606 5603 5600 5599 5598 5597 5599 5602 5602 5605 5617 5605 5603 5604 5603 5601
5495 5493 5494 5496 5497 5498 5500 5505 5510 5516 5522 5529 5537 5542 5547 5553 5562 5579 5583 5585 5585 5586 5587 5588 5589 5591 5592 5594 5596 5592 5591 5591 5590 5586 5590 5594 5593 5598 5602 5600 5598 5598 5596
5482 5481 5481 5482 5482 5483 5485 5488 5492 5497 5502 5508 5512 5518 5523 5529 5536 5546 5556 5567 5570 5570 5571 5573 5575 5577 5579 5580 5582 5584 5582 5582 5583 5582 5582 5584 5583 5583 5585 5596 5590 5589 5589
5468 5466 5465 5467 5467 5469 5472 5475 5478 5480 5483 5487 5491 5495 5500 5505 5511 5516 5521 5530 5541 5548 5554 5557 5559 5562 5565 5567 5568 5571 5572 5571 5572 5573 5574 5577 5575 5575 5576 5581 5588 5584 5584
5450 5449 5449 5450 5451 5453 5455 5458 5462 5465 5466 5467 5470 5472 5476 5481 5485 5488 5494 5500 5507 5514 5523 5530 5540 5546 5549 5552 5555 5557 5559 5558 5558 5560 5562 5564 5565 5567 5571 5573 5578 5575 5575
5430 5429 5429 5430 5431 5432 5434 5436 5440 5443 5446 5449 5450 5451 5454 5458 5462 5466 5470 5476 5480 5487 5494 5502 5512 5523 5531 5536 5539 5543 5545 5548 5547 5547 5547 5549 5553 5553 5556 5557 5561 5560 5564
5409 5409 5409 5408 5409 5410 5412 5414 5416 5419 5422 5426 5430 5432 5434 5436 5439 5443 5447 5453 5458 5465 5471 5479 5487 5496 5505 5516 5521 5527 5531 5533 5535 5536 5536 5537 5538 5540 5541 5542 5544 5549 5549
5389 5388 5388 5387 5387 5388 5388 5390 5393 5395 5398 5401 5405 5408 5412 5416 5418 5421 5425 5430 5435 5442 5449 5456 5463 5471 5478 5487 5495 5508 5513 5518 5522 5524 5525 5524 5525 5524 5527 5528 5529 5532 5535
5368 5367 5367 5366 5365 5365 5366 5368 5370 5373 5376 5379 5382 5385 5388 5392 5395 5399 5403 5407 5412 5418 5424 5430 5437 5444 5452 5459 5468 5477 5489 5498 5504 5508 5510 5512 5511 5511 5511 5513 5515 5516 5518
5344 5342 5342 5342 5341 5340 5341 5342 5344 5347 5350 5353 5357 5362 5365 5368 5370 5374 5378 5383 5389 5394 5399 5404 5410 5416 5423 5431 5441 5449 5455 5463 5477 5486 5490 5495 5495 5498 5498 5498 5499 5500 5503
5318 5316 5314 5313 5312 5312 5312 5314 5316 5318 5321 5325 5329 5333 5337 5341 5344 5348 5353 5357 5362 5367 5373 5379 5384 5389 5395 5402 5410 5420 5429 5437 5443 5451 5463 5472 5475 5479 5482 5484 5486 5487 5488
5292 5288 5287 5287 5285 5284 5284 5285 5287 5290 5293 5297 5300 5304 5309 5311 5314 5319 5324 5329 5334 5339 5344 5349 5356 5361 5367 5373 5380 5390 5400 5408 5416 5423 5428 5436 5445 5454 5459 5461 5466 5469 5470
5266 5262 5261 5259 5258 5257 5257 5257 5259 5261 5263 5266 5269 5273 5278 5281 5285 5290 5294 5299 5304 5309 5315 5320 5325 5331 5338 5343 5350 5358 5368 5375 5385 5394 5400 5406 5412 5419 5426 5430 5440 5444 5449
5239 5236 5233 5232 5230 5230 5230 5229 5229 5230 5232 5234 5237 5240 5244 5247 5251 5257 5262 5267 5273 5279 5284 5289 5294 5300 5306 5312 5319 5327 5336 5343 5350 5359 5369 5377 5385 5392 5399 5403 5409 5414 5419
5214 5211 5208 5205 5202 5201 5201 5200 5200 5201 5203 5204 5206 5209 5212 5215 5218 5223 5227 5232 5239 5246 5252 5258 5263 5268 5274 5278 5286 5293 5303 5312 5318 5326 5336 5345 5354 5364 5372 5378 5381 5385 5392
5186 5183 5180 5177 5175 5175 5174 5174 5174 5176 5177 5179 5181 5183 5185 5188 5192 5195 5199 5203 5208 5214 5220 5226 5233 5240 5243 5247 5254 5261 5269 5279 5289 5297 5306 5313 5323 5332 5341 5349 5355 5360 5365
5162 5160 5157 5155 5155 5152 5151 5152 5154 5154 5155 5157 5159 5160 5161 5165 5168 5170 5174 5178 5184 5189 5194 5201 5207 5212 5217 5219 5225 5232 5240 5251 5262 5270 5279 5286 5296 5306 5314 5321 5327 5333 5339
5146 5145 5143 5142 5137 5136 5136 5137 5136 5137 5138 5139 5138 5138 5139 5142 5145 5147 5151 5155 5158 5165 5171 5177 5182 5187 5194 5195 5200 5207 5216 5228 5238 5248 5257 5263 5273 5282 5289 5294 5299 5309 5316
5134 5130 5127 5124 5122 5121 5120 5120 5119 5118 5119 5118 5117 5117 5117 5118 5119 5122 5125 5129 5134 5140 5145 5151 5156 5163 5168 5175 5179 5184 5192 5203 5213 5223 5233 5243 5249 5255 5263 5268 5275 5285 5291
5119 5115 5114 5111 5106 5102 5101 5100 5098 5098 5097 5095 5094 5093 5092 5093 5095 5098 5102 5105 5110 5114 5120 5126 5132 5138 5144 5151 5158 5163 5169 5178 5188 5200 5209 5217 5225 5234 5240 5245 5251 5261 5268
5102 5097 5092 5089 5085 5082 5079 5078 5075 5073 5071 5069 5069 5068 5068 5068 5069 5072 5077 5080 5082 5087 5092 5098 5106 5113 5119 5127 5133 5141 5149 5155 5163 5172 5182 5193 5203 5212 5220 5225 5232 5238 5247
5083 5078 5073 5070 5069 5064 5060 5056 5055 5052 5050 5048 5046 5044 5044 5045 5046 5044 5047 5050 5052 5055 5060 5066 5074 5083 5092 5101 5108 5117 5124 5131 5140 5151 5159 5168 5178 5187 5196 5205 5211 5217 5225
5067 5063 5060 5059 5055 5051 5047 5042 5040 5037 5034 5032 5029 5027 5026 5026 5026 5025 5025 5026 5027 5028 5034 5040 5046 5054 5065 5073 5083 5092 5099 5108 5117 5127 5138 5148 5157 5166 5175 5182 5189 5197 5203
5056 5055 5049 5046 5044 5042 5037 5033 5030 5026 5023 5020 5017 5014 5013 5011 5009 5009 5011 5008 5009 5011 5014 5018 5022 5029 5036 5047 5055 5064 5073 5084 5095 5103 5113 5123 5132 5143 5153 5161 5169 5176 5182